AEROCUBE 7B (OCSD B) (43042 NORAD) Tracking and Keplerian Element Data

This shows tracking and keplerian element data for the satellite.

Feedback or suggestion? Click here.




ElementValue
Catalog43042
NameAEROCUBE 7B (OCSD B)
Epoch Orbit7711
Epoch Day111.52880588
Epoch Year2019
RAAN337.2054
Inclination51.6387
Eccentricity0.0003982
Argument of Perigee307.4315
Mean Anonmoly52.6307
Mean Motion15.40810234
Decay Rate2.815E-05
L11 43042U 17071F 19111.52880588 .00002815 00000-0 77345-4 0 9992
L22 43042 51.6387 337.2054 0003982 307.4315 52.6307 15.40810234 77111

Live tracking and technical data element details for AEROCUBE 7B (OCSD B) (NORAD 43042). AEROCUBE 7B (OCSD B) can be tracked NOW for your location showing map with azimuth and elevation plus other details from your city location.

Track the satellite on the map from your city or location and see movement details for azimuth, elevation, latitude, longitude, range, height, and movement on the map or in text.







IsCatalogInMostPopularTable: catalog: 43042, numindb: 241
Update: records affected: 1



GetName: 43042 AEROCUBE 7B (OCSD B)

Hit Count: updated at: Tue, 23 Apr 2019 02:49:50 GMT